Wind_Speed
24 23 23 22 22 23 23 22 21 21 21 20 20 20 21 20 20 21 22 22 21 21 22 23 24 24 24 25 26 27 27 28 28 28 27 28 28 27 27 27 27 28 29
24 23 22 22 22 22 22 21 21 20 20 20 20 20 20 20 21 21 22 21 21 21 22 23 23 23 24 24 26 26 26 26 27 26 26 26 26 26 25 26 26 27 29
24 24 23 22 22 21 20 19 19 19 19 19 19 19 20 20 21 21 21 20 20 21 22 21 21 22 22 23 24 24 24 25 25 25 25 24 24 25 25 26 26 27 28
24 24 24 23 21 19 18 17 18 18 18 17 18 19 19 19 20 20 20 20 20 20 20 20 20 20 21 21 22 23 23 23 24 24 24 24 24 24 24 25 25 26 27
24 24 23 21 19 18 17 17 17 17 17 18 18 18 18 18 19 19 19 19 18 17 18 18 18 19 20 20 22 22 22 22 22 22 23 22 22 22 23 24 24 24 25
23 22 22 21 18 17 16 15 15 16 17 17 17 17 17 17 17 17 17 16 16 16 16 17 17 18 19 19 20 21 21 21 21 21 21 21 21 20 21 22 23 23 24
22 21 21 20 18 17 16 15 15 16 16 17 17 16 16 16 16 16 15 15 15 15 15 15 16 17 18 19 19 19 19 19 19 20 20 20 20 20 20 21 22 23 23
21 20 19 19 17 16 15 15 14 15 16 16 16 15 15 14 14 13 14 14 14 14 15 15 16 17 18 18 17 18 18 18 18 18 19 20 20 20 20 21 22 22 23
20 18 18 18 16 15 15 15 15 15 15 15 15 14 13 13 13 13 13 13 14 14 14 15 16 17 17 17 17 17 17 17 16 17 18 19 19 19 19 19 20 21 21
19 18 18 17 16 16 15 14 15 15 15 14 13 12 12 12 12 12 13 13 14 13 14 15 16 16 16 16 16 16 16 16 16 15 16 17 17 18 17 18 19 20 20
19 18 17 16 16 15 14 14 14 14 13 13 12 12 12 12 12 12 13 13 13 14 14 15 15 15 15 15 15 16 16 16 16 16 16 16 17 17 17 17 18 19 19
18 17 16 16 15 15 14 13 13 13 13 12 12 12 12 12 12 12 13 13 13 14 15 15 14 14 15 14 14 15 15 16 16 16 15 15 16 17 17 18 18 19 19
18 17 16 15 14 14 13 12 12 12 12 11 11 11 12 12 12 13 13 13 13 14 15 15 14 14 14 14 15 15 16 16 16 16 16 16 16 17 17 17 17 18 19
16 16 15 15 14 13 12 12 12 11 11 11 12 12 13 13 12 12 13 13 14 14 15 14 14 14 15 15 15 15 15 16 16 17 17 17 18 17 17 17 17 18 18
15 15 15 14 12 12 12 12 12 12 12 12 12 13 14 14 14 13 13 12 13 14 14 14 14 14 15 15 15 15 16 16 17 17 18 17 17 17 17 17 18 18 18
14 14 13 12 12 12 12 12 11 11 11 12 13 14 14 15 14 13 13 13 13 13 14 15 15 15 15 15 15 16 16 17 17 18 18 18 17 17 17 18 18 19 19
14 14 13 13 12 12 12 11 11 11 12 12 13 15 15 15 14 14 14 13 13 13 13 15 16 16 16 15 15 16 16 17 18 18 19 19 18 18 18 18 19 19 19
15 14 14 13 13 12 11 11 12 12 13 12 13 14 14 14 15 15 14 13 13 13 13 15 16 16 16 15 16 16 17 18 19 20 20 19 19 18 18 19 19 18 18
15 15 14 13 12 12 11 12 12 13 13 12 12 12 14 14 14 14 14 14 13 13 14 15 15 16 16 16 16 17 18 18 19 19 19 19 19 18 19 19 19 19 18
15 15 13 13 12 12 11 11 11 11 12 12 12 13 14 14 14 14 14 14 13 13 14 14 15 16 17 17 18 18 18 18 18 19 20 20 20 19 19 20 19 19 19
14 14 13 13 12 12 11 11 10 10 11 12 13 14 14 13 14 14 14 14 13 14 14 14 15 16 18 19 19 19 19 19 19 19 20 20 20 20 20 20 20 20 20
14 14 14 13 13 12 12 11 10 11 11 11 12 12 12 12 13 14 14 14 14 14 14 15 16 17 18 20 19 18 19 20 20 20 20 20 21 20 20 21 21 20 20
15 14 14 13 13 12 12 11 11 11 10 11 11 11 12 13 13 13 14 14 14 14 15 15 16 17 18 19 19 19 20 20 21 21 21 21 21 21 21 21 21 20 20
14 14 14 14 13 12 11 11 10 10 10 11 11 11 12 12 13 13 13 13 14 15 15 15 17 17 18 19 19 19 20 20 21 22 22 21 21 21 21 21 21 21 21
14 13 13 13 12 11 11 11 10 10 11 11 10 11 11 12 12 13 13 13 14 14 15 16 17 18 18 18 18 19 21 22 22 22 22 21 21 21 21 21 21 21 21
14 13 12 12 12 11 11 11 11 11 11 10 10 10 10 12 12 13 13 13 13 14 15 16 17 18 18 19 20 20 21 22 22 23 22 22 21 21 21 22 22 21 21
Wind_Direction
309 308 306 305 304 303 298 295 294 293 295 295 294 293 292 291 292 294 295 297 296 295 292 292 292 290 289 288 286 284 284 282 280 280 280 277 273 271 271 270 269 266 265
309 307 308 308 306 305 301 297 295 294 294 295 296 294 293 292 293 293 294 295 296 296 296 294 292 290 290 289 287 285 284 282 282 281 279 277 272 271 270 271 269 267 267
311 309 308 309 308 307 302 299 298 296 294 296 297 297 295 295 295 295 294 294 295 296 298 296 295 294 292 291 289 287 286 285 285 284 282 280 276 272 271 271 270 270 271
315 313 311 309 308 306 304 301 300 298 297 299 299 297 296 296 296 296 296 295 295 297 298 296 296 296 295 293 292 289 289 288 288 286 285 283 279 275 273 272 273 272 272
317 315 315 313 310 307 305 305 304 303 302 302 301 299 298 298 297 297 296 297 298 300 300 298 297 298 298 299 297 294 292 290 289 288 285 285 282 277 275 273 273 271 272
317 316 316 318 314 309 307 306 307 306 306 305 302 301 302 299 297 300 300 301 302 304 305 303 302 302 302 303 304 300 296 295 293 291 287 287 285 282 279 276 273 274 273
317 317 317 319 318 314 309 305 305 305 305 305 304 302 301 302 302 302 304 307 308 306 306 307 309 308 307 305 305 305 302 300 298 294 291 290 289 286 283 282 279 278 277
319 318 319 320 318 319 316 312 309 309 310 308 305 302 301 303 304 303 305 306 308 307 307 309 310 311 310 308 306 307 307 305 302 298 294 292 291 287 286 286 284 282 279
320 319 321 324 324 322 318 317 315 315 318 317 313 308 305 306 306 306 308 311 314 311 311 312 313 315 315 315 314 314 312 311 308 303 299 295 294 292 289 289 289 288 286
322 321 321 323 325 325 323 320 321 321 323 322 318 313 311 310 310 310 311 314 316 314 314 316 317 317 318 319 318 317 316 315 314 311 305 302 298 296 293 292 293 293 290
321 321 322 323 324 327 325 324 324 325 323 320 318 317 317 317 317 316 315 316 319 318 317 318 321 322 323 324 324 323 321 321 319 315 312 307 302 299 296 294 294 295 293
321 322 321 323 325 326 327 325 323 323 321 319 317 318 319 319 318 318 317 318 320 321 321 323 325 325 325 326 327 326 326 324 322 320 315 312 307 302 299 297 296 297 294
318 320 321 322 324 325 326 324 322 324 324 323 322 321 319 318 317 317 317 319 322 321 322 323 324 326 325 325 327 329 329 326 325 323 318 313 310 308 304 302 302 300 298
317 317 319 320 321 323 324 324 324 324 327 325 323 323 320 318 318 318 316 316 318 318 320 323 325 326 325 327 328 328 330 329 326 323 321 317 314 314 312 308 304 302 301
317 316 317 318 320 322 322 323 324 325 326 327 325 326 324 322 321 321 320 317 319 323 325 325 326 325 325 324 324 325 328 329 328 326 324 323 321 319 316 313 309 305 304
321 320 319 321 322 321 321 321 320 321 324 326 326 326 326 325 322 320 318 317 319 323 327 327 327 326 325 324 324 325 327 328 328 329 328 326 324 321 319 318 314 310 307
319 318 318 317 318 317 318 318 317 317 318 319 321 323 324 325 324 323 322 322 322 323 326 329 329 329 329 326 323 324 326 327 328 329 329 327 325 321 318 319 318 315 313
317 316 317 317 315 315 317 316 316 316 317 318 321 324 326 327 327 325 325 324 322 323 324 326 327 330 332 329 326 325 326 327 327 328 329 329 327 324 322 322 321 321 320
315 316 317 316 314 313 315 314 314 316 318 321 325 327 329 332 331 330 330 327 323 322 323 326 328 331 333 332 330 328 329 328 328 329 330 331 331 329 326 325 324 323 322
312 311 312 313 314 313 312 311 314 317 318 322 325 327 330 332 333 333 332 330 327 326 326 327 329 333 334 332 331 332 331 329 328 329 330 331 331 330 328 327 325 323 322
308 308 309 310 311 310 309 312 313 313 314 319 325 329 331 334 335 334 334 333 331 328 328 327 328 332 334 334 332 331 331 330 329 330 331 332 331 331 330 329 327 324 321
305 304 305 305 305 306 305 309 311 313 314 317 324 330 333 336 338 337 335 335 334 333 333 331 329 331 333 333 334 334 334 333 331 331 331 332 333 332 331 330 328 325 323
303 305 305 303 302 303 304 305 305 308 314 321 325 328 331 333 333 335 336 336 336 336 335 336 336 336 337 337 339 338 337 337 335 335 335 334 334 333 332 331 330 329 327
301 303 303 302 301 300 300 300 302 304 310 316 319 321 322 326 329 332 333 333 336 341 341 340 341 341 342 343 343 343 342 340 338 337 337 337 336 334 333 332 331 331 330
298 300 301 301 300 299 299 300 300 303 308 312 315 317 321 327 330 333 334 333 334 337 339 340 342 344 345 345 345 346 346 343 339 338 337 337 337 336 336 335 334 333 333
291 293 295 297 300 299 296 298 300 303 305 308 312 314 316 321 325 329 332 332 333 337 340 342 343 343 344 344 345 346 347 345 341 340 341 340 339 338 337 336 335 334 334
Height
5745 5742 5739 5736 5734 5731 5729 5729 5728 5727 5726 5726 5725 5724 5723 5722 5721 5720 5718 5717 5716 5714 5713 5712 5711 5709 5708 5707 5706 5705 5704 5703 5703 5703 5701 5700 5700 5700 5700 5700 5700 5701 5702
5739 5736 5733 5730 5728 5726 5724 5723 5722 5722 5721 5720 5719 5718 5717 5716 5715 5714 5713 5712 5710 5708 5707 5705 5704 5703 5701 5700 5698 5697 5696 5694 5694 5693 5693 5692 5691 5691 5691 5691 5691 5691 5692
5734 5730 5728 5725 5723 5720 5719 5718 5717 5717 5716 5715 5714 5713 5712 5710 5709 5708 5707 5705 5704 5702 5701 5699 5698 5696 5695 5693 5691 5690 5688 5687 5686 5685 5684 5683 5683 5682 5682 5682 5682 5682 5682
5729 5725 5722 5720 5718 5715 5714 5713 5712 5712 5711 5710 5709 5708 5706 5705 5704 5702 5701 5700 5698 5697 5695 5693 5692 5691 5689 5687 5685 5683 5682 5680 5678 5677 5676 5675 5675 5674 5674 5674 5674 5673 5673
5724 5721 5717 5715 5713 5711 5710 5709 5708 5708 5707 5705 5704 5703 5701 5700 5698 5697 5696 5694 5693 5692 5690 5688 5687 5685 5683 5681 5679 5677 5675 5673 5672 5670 5669 5668 5667 5666 5666 5666 5666 5665 5665
5720 5717 5714 5711 5708 5707 5706 5705 5704 5704 5702 5701 5700 5698 5697 5695 5694 5692 5691 5689 5689 5687 5686 5684 5682 5680 5678 5676 5674 5671 5669 5667 5665 5663 5662 5661 5660 5659 5659 5658 5658 5658 5658
5717 5714 5711 5708 5706 5704 5703 5702 5701 5700 5698 5697 5695 5694 5692 5691 5690 5688 5686 5685 5684 5683 5681 5679 5678 5675 5673 5672 5669 5666 5663 5660 5659 5657 5655 5654 5653 5652 5652 5651 5651 5650 5650
5713 5711 5708 5705 5703 5701 5700 5698 5697 5696 5695 5693 5691 5690 5688 5687 5686 5684 5683 5682 5680 5679 5677 5675 5673 5671 5668 5666 5664 5661 5658 5655 5653 5651 5650 5648 5647 5646 5645 5645 5644 5643 5643
5710 5708 5706 5703 5700 5698 5697 5695 5694 5693 5691 5689 5688 5686 5685 5684 5682 5681 5680 5678 5676 5675 5673 5671 5669 5667 5664 5661 5659 5656 5653 5651 5648 5646 5644 5643 5641 5640 5639 5638 5637 5637 5636
5708 5705 5703 5700 5698 5696 5694 5693 5691 5690 5688 5687 5686 5684 5682 5681 5679 5678 5677 5675 5673 5671 5669 5667 5665 5662 5660 5657 5655 5652 5649 5647 5644 5642 5640 5638 5636 5635 5634 5633 5632 5630 5629
5705 5702 5700 5698 5695 5694 5692 5690 5689 5688 5686 5685 5683 5681 5680 5678 5677 5675 5673 5672 5670 5668 5666 5663 5661 5659 5656 5653 5651 5648 5645 5642 5639 5637 5635 5633 5632 5630 5629 5627 5625 5624 5623
5703 5700 5698 5695 5693 5691 5690 5689 5687 5686 5684 5682 5681 5679 5678 5676 5674 5672 5670 5668 5666 5664 5662 5660 5657 5655 5653 5650 5647 5644 5641 5638 5635 5633 5631 5629 5627 5625 5624 5622 5620 5618 5617
5701 5699 5696 5694 5691 5690 5688 5687 5685 5684 5682 5680 5679 5677 5675 5673 5671 5669 5667 5665 5663 5661 5659 5656 5654 5651 5649 5646 5643 5640 5637 5634 5632 5629 5627 5625 5622 5620 5618 5617 5615 5613 5611
5699 5696 5694 5692 5690 5688 5686 5685 5683 5681 5680 5678 5677 5675 5673 5671 5668 5666 5664 5662 5660 5658 5655 5653 5650 5648 5645 5642 5640 5637 5634 5631 5628 5625 5623 5620 5618 5616 5613 5611 5609 5608 5606
5696 5694 5692 5689 5688 5686 5684 5683 5681 5679 5677 5676 5674 5672 5670 5668 5665 5663 5661 5659 5657 5655 5652 5650 5647 5645 5642 5639 5636 5634 5631 5628 5625 5622 5619 5616 5613 5611 5609 5606 5604 5602 5600
5694 5691 5689 5687 5685 5684 5682 5681 5679 5677 5676 5674 5672 5670 5667 5665 5662 5660 5658 5656 5654 5652 5650 5647 5644 5641 5639 5636 5633 5631 5628 5625 5622 5618 5615 5612 5609 5607 5604 5602 5599 5597 5594
5691 5689 5687 5685 5683 5681 5679 5678 5677 5675 5673 5671 5669 5667 5665 5662 5660 5657 5655 5652 5650 5649 5647 5644 5641 5638 5635 5633 5630 5627 5625 5622 5618 5615 5612 5608 5606 5603 5600 5597 5594 5591 5589
5688 5686 5684 5682 5680 5679 5677 5675 5674 5672 5671 5669 5667 5665 5662 5660 5657 5654 5652 5650 5648 5646 5644 5641 5638 5635 5632 5629 5627 5624 5621 5618 5615 5611 5608 5604 5601 5598 5595 5592 5589 5586 5583
5686 5683 5681 5679 5678 5676 5674 5672 5671 5669 5667 5666 5664 5662 5660 5657 5654 5652 5649 5647 5645 5643 5641 5638 5635 5633 5630 5627 5624 5621 5618 5614 5611 5608 5604 5601 5598 5594 5591 5588 5585 5582 5579
5683 5681 5678 5677 5675 5673 5671 5669 5668 5666 5665 5663 5662 5659 5657 5654 5652 5649 5647 5645 5642 5640 5638 5635 5633 5630 5627 5624 5621 5617 5614 5611 5608 5604 5601 5597 5594 5590 5587 5583 5580 5577 5574
5679 5678 5676 5674 5672 5670 5668 5666 5665 5663 5662 5660 5659 5657 5654 5652 5650 5647 5645 5642 5640 5638 5635 5633 5630 5627 5624 5621 5618 5615 5611 5608 5604 5601 5597 5594 5590 5586 5582 5579 5575 5572 5569
5675 5674 5672 5671 5669 5667 5665 5664 5662 5661 5659 5658 5656 5654 5652 5650 5648 5645 5643 5640 5638 5635 5633 5630 5627 5624 5621 5618 5615 5611 5608 5604 5601 5597 5593 5589 5586 5582 5578 5575 5571 5567 5564
5671 5670 5669 5667 5665 5664 5663 5661 5660 5658 5657 5656 5654 5652 5651 5648 5646 5644 5641 5639 5636 5633 5630 5628 5625 5621 5618 5615 5612 5609 5605 5601 5597 5594 5590 5586 5582 5578 5574 5570 5566 5563 5559
5667 5666 5665 5663 5662 5660 5659 5658 5657 5656 5655 5653 5652 5650 5649 5647 5644 5642 5640 5637 5635 5632 5629 5626 5623 5619 5616 5613 5609 5606 5602 5598 5594 5590 5586 5582 5578 5574 5570 5566 5562 5558 5555
5663 5662 5661 5659 5658 5657 5656 5655 5654 5653 5652 5651 5649 5648 5646 5645 5643 5640 5638 5636 5633 5630 5627 5624 5621 5618 5615 5611 5607 5604 5599 5595 5591 5587 5583 5579 5575 5570 5566 5562 5558 5555 5551
5659 5658 5657 5656 5655 5653 5653 5652 5652 5650 5649 5648 5647 5646 5644 5643 5641 5638 5636 5634 5631 5628 5625 5623 5620 5616 5613 5609 5606 5602 5597 5593 5589 5584 5580 5576 5571 5567 5563 5559 5555 5551 5547